This demonstration page uses our WeatherBlox Daily Observations layout. Learn more.

41.55636, -103.73856

Hourly Observations for November 29, 2015

Temp ( °F °C ) Dew Point ( °F °C ) Humidity (%) Winds ( mph kmh ) Pressure ( in mb ) Visibility ( mi km ) Precip ( " mm )
12:53 am 00:53 Cloudy 20 -6.7 15 -9.4 81 81 WNW 3 6 30.32 1027 10 16.0934 0 0
1:53 am 01:53 Cloudy 17 -8.3 13 -10.6 84 84 N 6 9 30.31 1027 10 16.0934 0 0
2:46 am 02:46 Partly Cloudy 16 -9 12 -11 86 86 NW 3 6 30.39 1029 10 16.0934 0 0
2:53 am 02:53 Mostly Clear 15 -9.4 13 -10.6 91 91 WNW 3 6 30.3 1026 10 16.0934 0 0
3:51 am 03:51 Mostly Cloudy 12 -11 9 -13 85 85 NW 7 11 30.45 1031 10 16.0934 0 0
3:53 am 03:53 Mostly Cloudy 12 -11.1 8 -13.3 84 84 NW 6 9 30.29 1026 10 16.0934 0 0
4:53 am 04:53 Cloudy 13 -10.6 10 -12.2 88 88 WNW 8 13 30.3 1026 10 16.0934 0 0
5:30 am 05:30 Cloudy 16 -9 10 -12 79 79 NW 8 13 30.39 1029 10 16.0934 0 0
5:53 am 05:53 Cloudy 15 -9.4 11 -11.7 84 84 NW 10 17 30.31 1026 10 16.0934 0 0
6:53 am 06:53 Cloudy 16 -8.9 12 -11.1 84 84 NNW 8 13 30.31 1026 10 16.0934 0 0
7:53 am 07:53 Cloudy 16 -8.9 11 -11.7 80 80 NNW 8 13 30.3 1026 10 16.0934 0 0
8:53 am 08:53 Cloudy 16 -8.9 11 -11.7 80 80 W 5 7 30.32 1027 10 16.0934 0 0
9:28 am 09:28 Cloudy 18 -8 12 -11 79 79 NW 12 19 30.42 1030 9 14.48406 0 0
9:53 am 09:53 Cloudy 21 -6.1 15 -9.4 78 78 WNW 9 15 30.29 1026 8 12.87472 0 0
10:00 am 10:00 Mostly Cloudy 21 -6 16 -9 80 80 NW 9 15 30.36 1028 8 12.87472 0 0
10:53 am 10:53 Sunny 25 -3.9 17 -8.3 72 72 NNW 9 15 30.23 1024 9 14.48406 0 0
11:53 am 11:53 Sunny 27 -2.8 18 -7.8 69 69 W 7 11 30.22 1023 10 16.0934 0 0
12:53 pm 12:53 Sunny 29 -1.7 17 -8.3 61 61 VRB 6 9 30.19 1022 10 16.0934 0 0
1:34 pm 13:34 Mostly Cloudy 30 -1 18 -8 59 59 NW 8 13 30.24 1024 10 16.0934 0 0
1:53 pm 13:53 Mostly Cloudy 30 -1.1 18 -7.8 61 61 NW 10 17 30.19 1022 10 16.0934 0 0
2:10 pm 14:10 Partly Cloudy 28 -2 18 -8 64 64 NW 6 9 30.21 1023 10 16.0934 0 0
2:53 pm 14:53 Mostly Sunny 29 -1.7 18 -7.8 63 63 NNW 6 9 30.19 1022 10 16.0934 0 0
3:14 pm 15:14 Mostly Cloudy 28 -2 18 -8 64 64 N 5 7 30.21 1023 10 16.0934 0 0
3:53 pm 15:53 Cloudy 28 -2.2 19 -7.2 69 69 NNW 7 11 30.2 1023 10 16.0934 0 0
4:48 pm 16:48 Partly Cloudy 25 -4 18 -8 74 74 N 6 9 30.24 1024 10 16.0934 0 0
4:53 pm 16:53 Mostly Clear 23 -5 17 -8.3 78 78 N 7 11 30.22 1024 10 16.0934 0 0
5:53 pm 17:53 Clear 23 -5 18 -7.8 81 81 NNW 7 11 30.21 1023 10 16.0934 0 0
6:50 pm 18:50 Mostly Cloudy 25 -4 18 -8 74 74 Calm 30.24 1024 10 16.0934 0 0
6:53 pm 18:53 Mostly Cloudy 24 -4.4 18 -7.8 77 77 Calm 30.2 1023 10 16.0934 0 0
7:53 pm 19:53 Cloudy 23 -5 19 -7.2 85 85 S 5 7 30.19 1023 10 16.0934 0 0
8:53 pm 20:53 Cloudy 25 -3.9 20 -6.7 81 81 Calm 30.19 1022 10 16.0934 0 0
9:53 pm 21:53 Cloudy 25 -3.9 21 -6.1 85 85 Calm 30.17 1022 9 14.48406 0 0
10:53 pm 22:53 Cloudy 24 -4.4 19 -7.2 81 81 NW 6 9 30.16 1021 10 16.0934 0 0
11:53 pm 23:53 Cloudy 23 -5 18 -7.8 81 81 NW 7 11 30.14 1021 10 16.0934 0 0

Powered by AerisWeather